Tracking 34085 objects as of 13-May-2026
HD Live streaming from Space Station
objects crossing your sky now

STARLINK-37102

Track STARLINK-37102 now!
10-day predictions
STARLINK-37102 is classified as:


NORAD ID: 68183
Int'l Code: 2026-050S
Perigee: 455.9 km
Apogee: 457.4 km
Inclination: 53.2 °
Period: 93.6 minutes
Semi major axis: 6827 km
RCS: Unknown
Launch date: March 14, 2026
Source: United States (US)
Launch site: AIR FORCE EASTERN TEST RANGE (AFETR)
Your satellite tracking list
Your tracking list is empty




NASA's NSSDC Master Catalog

Two Line Element Set (TLE):
1 68183U 26050S   26132.95224286  .00020057  00000-0  52320-3 0  9990
2 68183  53.1599 328.8596 0001124  87.5863 272.5270 15.38840696 10518
Source of the keplerian elements: AFSPC